Theta_e
321 320 318 318 320 320 319 320 320 319 317 313 310 309 309 311 311 309 307 307 308 310 312 314 315 315 313 310 309 309 309 308 310 312 314 314 313 313 313 312 311 311
321 320 319 318 319 320 319 320 320 319 318 315 312 310 310 310 311 309 307 306 305 307 311 314 315 314 313 310 307 307 308 309 308 308 310 313 314 313 313 311 310 309
321 320 319 318 318 318 319 320 320 319 319 317 315 313 311 311 312 311 309 307 305 306 311 314 314 314 313 310 307 306 307 308 308 307 307 311 313 313 312 311 310 309
321 320 319 318 318 318 319 319 320 320 319 319 318 316 313 312 313 313 311 310 307 306 309 312 313 313 312 311 310 308 308 308 308 308 306 307 310 312 312 312 311 309
320 320 319 319 319 319 319 319 320 320 320 319 319 318 316 314 314 314 313 312 310 309 308 309 311 313 313 312 312 312 310 310 310 309 307 305 306 309 310 311 311 308
319 320 320 319 319 319 320 320 320 320 320 320 319 319 318 317 316 315 315 314 313 312 311 309 309 311 312 311 313 314 313 311 311 309 309 308 307 307 309 310 310 308
321 320 320 320 320 320 321 321 320 320 320 320 320 319 319 318 317 317 317 316 315 314 314 313 311 311 312 311 311 314 314 313 312 311 310 311 309 307 308 310 310 310
321 320 320 321 320 320 320 321 320 319 319 320 320 320 319 319 319 318 318 318 318 317 316 316 315 313 313 312 311 313 314 313 313 312 311 312 311 309 308 309 310 310
322 320 320 320 321 321 320 321 320 319 319 320 320 320 320 319 320 319 319 319 318 318 317 317 317 316 315 315 313 312 313 313 314 312 311 312 312 311 309 308 309 310
323 321 321 320 320 320 320 321 321 319 319 319 319 320 320 319 320 319 319 319 318 318 318 318 318 318 317 317 316 315 314 313 313 313 312 312 312 312 311 310 309 309
322 320 320 321 320 321 320 320 321 320 320 321 320 320 320 320 320 320 320 320 319 319 319 319 319 318 318 318 318 317 316 314 314 313 313 313 313 312 312 312 311 309
322 320 319 320 321 321 321 320 321 321 321 322 321 321 321 320 321 320 320 320 320 320 320 319 319 319 319 319 319 318 317 316 315 314 314 314 314 313 312 312 313 311
320 321 321 320 321 321 320 320 321 320 320 321 321 321 322 322 321 321 321 321 321 320 320 320 320 319 319 319 319 319 318 317 316 315 315 314 314 313 312 312 313 312
320 322 322 321 322 321 321 320 320 320 319 320 320 321 321 321 321 320 321 321 321 321 320 319 319 319 320 319 319 319 318 318 317 316 315 315 315 314 313 312 312 312
322 323 323 323 323 322 323 322 321 321 320 320 320 320 320 320 320 320 320 320 320 320 319 318 317 318 320 319 319 319 318 318 317 316 316 315 315 315 313 313 312 312
319 320 321 321 321 321 321 321 321 320 321 320 320 320 320 320 320 320 321 321 320 320 319 319 318 319 320 320 319 319 319 318 318 317 316 315 315 315 314 313 312 312
312 313 315 316 316 317 317 318 319 320 320 320 320 320 319 320 320 320 321 321 321 321 321 321 320 320 321 320 320 320 319 319 318 318 317 316 315 315 314 313 312 311
311 311 313 313 312 313 314 315 316 316 316 316 316 316 316 317 318 318 319 320 321 321 321 321 321 321 321 321 321 320 320 319 319 319 318 317 316 315 314 313 312 311
309 309 309 310 310 310 310 310 310 310 311 310 311 311 311 312 313 314 314 315 317 319 320 320 320 320 321 320 320 320 320 320 320 319 319 318 317 315 314 313 312 311
307 307 308 308 308 308 308 308 308 308 308 308 309 309 309 310 310 311 311 311 312 314 316 316 317 317 317 318 319 320 320 320 320 319 319 318 317 316 314 313 312 311
306 307 307 307 307 307 307 307 307 307 307 308 308 308 309 309 310 310 310 310 311 312 312 314 315 315 315 315 317 319 320 320 320 319 319 318 317 316 314 313 311 310
307 307 307 307 308 307 306 306 306 307 307 307 307 307 307 307 308 308 309 309 310 311 311 312 313 313 314 315 316 318 319 319 319 318 317 316 315 314 312 311 310 309
306 306 307 308 308 308 307 306 307 307 306 307 307 307 307 306 307 307 307 307 308 309 310 311 311 311 313 314 316 317 318 318 318 316 314 313 312 311 311 310 309 307
306 306 307 308 308 307 308 307 307 307 307 307 307 306 306 306 306 306 306 307 307 308 309 310 310 311 312 314 317 318 317 317 315 314 311 310 309 308 308 307 305 304
306 306 306 306 306 307 307 307 307 307 307 307 306 306 306 306 306 306 307 307 308 308 309 310 310 311 313 315 317 317 316 315 314 312 309 308 306 305 304 304 303 302
306 306 306 306 306 306 307 306 306 306 306 306 307 307 307 307 307 307 307 307 308 309 310 311 312 313 314 316 316 316 314 313 311 310 308 305 304 303 303 302 302 302
Wind_Speed
27 26 24 23 24 25 25 23 22 21 19 18 18 17 17 16 15 14 13 12 12 13 12 11 9 9 8 8 9 10 11 11 10 9 10 11 10 10 11 10 9 9
27 25 25 24 24 23 23 23 22 20 18 18 17 18 18 17 16 14 13 13 13 14 13 11 10 9 8 8 8 9 10 10 11 10 10 12 11 10 10 9 8 7
24 24 25 25 24 23 23 23 21 19 18 18 17 17 17 17 16 14 13 13 13 14 14 12 11 9 7 7 8 8 9 9 10 9 10 12 11 10 10 9 8 7
22 24 26 26 24 23 23 24 23 21 19 19 18 17 17 16 16 14 13 12 12 13 14 13 11 8 6 6 7 7 7 7 7 7 8 10 9 8 8 7 7 7
23 24 27 27 24 23 24 25 25 23 22 21 20 19 18 17 17 16 14 13 12 12 12 12 11 9 7 6 5 5 5 5 5 4 6 8 7 7 7 5 5 6
24 25 27 27 25 24 25 25 25 25 24 23 22 21 20 18 17 16 15 14 13 12 12 12 11 10 10 8 7 6 5 5 5 5 5 5 4 5 7 6 4 5
26 26 26 27 26 25 26 26 25 25 24 24 24 23 21 20 18 17 15 14 14 13 12 12 11 11 11 10 9 8 7 7 6 6 5 4 3 5 7 6 5 3
26 27 26 27 28 28 27 26 26 24 23 24 25 24 23 21 19 17 16 15 15 14 13 12 11 11 11 11 11 11 10 10 9 9 9 8 7 6 7 6 6 4
27 28 27 25 24 25 25 23 24 25 22 22 23 23 23 22 19 18 17 16 16 15 14 13 12 12 12 12 12 12 12 12 12 11 11 11 11 10 9 7 7 6
21 22 25 24 18 18 20 19 19 21 21 22 24 24 23 22 20 18 17 17 16 15 15 14 13 13 13 13 13 13 13 13 13 13 13 13 13 12 11 10 9 9
15 12 15 20 19 19 22 22 21 22 20 20 22 22 21 21 20 19 18 17 17 16 16 16 15 15 15 15 15 16 15 14 14 14 14 14 14 14 14 13 11 10
16 15 14 19 23 22 23 24 24 23 19 16 16 16 16 16 17 18 18 18 18 18 18 18 17 17 17 17 18 18 18 17 16 16 16 16 16 16 16 15 14 11
12 18 19 19 18 17 17 19 20 19 18 17 15 13 13 13 13 14 15 15 16 17 18 17 18 19 20 21 22 22 21 21 20 19 18 18 18 18 17 17 16 13
9 15 16 14 13 13 14 15 16 16 16 16 15 15 14 13 13 13 14 14 14 15 14 14 15 17 19 21 23 24 24 24 23 22 21 21 21 20 19 18 17 16
14 14 14 12 12 13 12 12 12 12 11 12 12 13 14 14 14 14 15 15 16 16 16 15 15 17 17 17 18 22 25 25 25 24 24 24 24 24 22 20 19 18
11 10 10 10 10 10 9 8 8 7 8 9 9 10 11 10 10 11 12 13 15 17 18 17 16 16 16 16 16 18 21 23 24 25 26 26 27 26 25 23 22 21
8 8 9 9 8 8 7 7 7 7 7 7 8 8 7 7 8 9 10 11 13 15 15 16 15 15 15 16 17 19 20 21 22 24 26 27 28 28 27 25 24 23
9 9 10 9 8 8 7 6 6 5 5 5 5 4 5 6 7 7 8 10 12 14 14 14 14 13 14 15 16 18 20 20 20 21 23 25 27 29 29 28 27 26
9 9 9 9 9 9 8 7 6 5 3 2 1 1 2 3 4 4 5 6 8 9 11 11 11 11 11 12 13 14 16 18 19 20 22 24 25 28 29 29 29 28
7 7 8 9 9 9 8 6 5 4 3 1 1 2 3 3 4 5 6 7 8 8 9 10 10 11 11 12 12 12 12 14 16 18 20 22 23 26 29 30 30 29
5 4 5 7 7 6 6 5 5 4 4 4 4 5 5 6 6 7 8 9 9 10 10 10 11 12 13 13 12 11 11 11 13 15 17 19 21 24 27 29 28 27
5 5 7 8 7 5 4 4 5 5 5 5 6 7 7 8 8 9 10 10 10 10 12 12 12 13 14 14 13 12 10 11 11 12 13 16 18 21 24 25 24 22
7 6 8 9 8 7 6 6 6 6 6 7 7 7 8 9 10 10 11 12 11 12 13 14 14 14 14 15 14 12 10 10 10 10 10 12 15 17 19 19 17 16
7 6 7 8 8 8 8 8 8 9 8 7 7 8 9 10 11 12 13 13 13 13 14 14 15 15 14 15 14 12 9 8 9 10 11 13 14 15 15 15 14 13
4 5 5 6 7 8 9 9 9 9 9 9 9 10 10 11 12 13 13 14 14 15 14 14 15 14 14 13 13 11 8 7 9 12 14 15 16 16 15 14 14 13
7 8 8 7 7 8 8 9 10 11 12 13 12 11 11 11 11 12 13 13 14 13 13 12 12 11 11 10 10 9 8 8 11 14 15 16 16 15 14 12 11 9
Wind_Direction
174 177 180 182 179 175 172 171 170 168 166 162 158 156 158 156 150 147 146 144 142 143 143 137 127 119 106 101 107 106 104 105 110 123 133 124 115 115 112 104 102 107
178 180 183 185 185 183 181 179 175 173 169 163 159 158 158 158 155 151 148 146 145 147 150 147 139 134 124 115 116 114 111 107 101 107 126 127 119 115 110 102 96 99
184 186 187 188 189 187 186 186 183 181 177 169 165 163 161 159 157 156 153 150 148 148 154 156 150 147 140 131 132 130 124 118 111 109 119 127 126 118 110 105 97 89
190 191 192 191 191 190 190 191 190 189 186 179 174 170 167 163 161 160 158 156 153 152 156 161 158 157 155 143 137 138 133 125 121 120 123 128 132 132 126 120 108 94
194 196 196 195 195 195 194 196 195 194 193 189 184 178 175 171 168 167 163 160 158 156 160 165 164 161 165 165 151 144 144 136 137 146 138 131 132 141 146 146 127 106
196 198 196 196 198 199 200 201 199 198 197 195 190 186 184 180 177 174 169 166 164 162 164 169 171 168 170 176 174 169 168 161 162 170 160 144 139 147 155 161 147 112
197 197 196 199 201 202 204 204 201 199 198 197 194 191 190 188 186 184 179 175 173 171 170 172 176 176 175 180 185 187 189 185 185 187 180 176 177 162 157 163 165 139
200 196 196 203 204 204 207 206 204 204 199 196 197 196 195 194 192 191 190 187 184 181 179 178 182 186 186 190 195 197 199 199 201 202 196 192 197 191 177 178 187 186
200 198 201 205 202 202 206 204 204 206 203 202 203 201 199 200 200 199 198 198 196 191 188 186 188 193 197 202 205 206 209 210 211 213 209 204 205 206 200 199 201 200
192 194 200 201 195 197 200 198 201 206 209 211 211 206 203 203 205 205 203 204 205 204 202 199 199 203 207 212 215 215 216 217 218 221 222 220 219 217 213 211 208 205
171 165 185 192 195 203 201 196 202 207 208 209 207 206 207 208 210 211 209 209 211 214 213 212 212 214 216 220 224 224 222 223 224 225 227 228 229 228 224 221 219 214
172 170 185 192 194 201 201 200 206 209 210 208 201 199 202 207 213 216 215 216 219 223 223 223 224 225 227 230 232 230 227 227 228 230 232 232 231 231 230 229 229 224
182 187 198 200 198 203 209 213 216 220 225 226 219 212 207 206 211 215 218 220 223 226 226 228 231 232 235 238 237 235 231 229 229 230 233 235 234 233 231 230 231 228
194 188 195 206 213 218 220 222 223 226 232 234 233 233 229 227 229 230 232 230 225 225 229 235 239 240 241 242 242 239 235 232 231 230 232 234 235 235 233 229 228 228
184 180 185 197 210 218 221 225 228 229 232 236 240 241 242 247 251 251 250 247 243 246 254 260 258 252 248 246 245 242 238 235 233 233 233 233 232 233 232 228 226 227
175 175 177 182 190 201 209 214 217 219 221 226 232 237 244 252 258 259 260 260 258 259 262 263 261 257 253 251 250 247 243 238 236 235 235 234 233 230 228 225 224 225
162 165 169 178 185 193 203 208 212 221 227 230 236 245 256 267 274 276 275 274 272 269 265 263 262 264 264 263 263 260 254 248 243 240 238 236 234 229 226 223 220 220
177 179 181 192 197 193 192 195 204 216 224 234 243 254 269 276 281 285 287 287 284 281 278 277 275 276 275 274 273 270 265 259 253 248 243 238 234 230 226 222 218 215
187 187 188 190 181 170 167 163 162 169 167 169 209 246 276 282 289 299 305 307 301 291 284 283 284 284 281 279 279 277 272 265 260 255 250 243 237 231 227 223 217 212
172 170 172 172 164 161 168 172 173 177 178 202 263 287 299 306 311 313 316 318 318 312 301 293 291 291 289 286 285 282 275 268 263 261 256 250 243 235 228 223 217 212
190 191 184 179 173 174 183 192 204 216 225 243 262 274 283 293 303 312 317 319 319 317 310 301 295 290 287 286 286 282 274 269 267 265 260 254 246 237 229 222 216 211
204 227 223 211 209 218 221 212 215 228 244 258 265 268 274 283 294 304 310 311 309 306 302 299 297 292 286 283 282 277 270 269 269 268 262 252 240 229 220 213 209 206
224 243 230 216 217 227 226 223 231 243 253 259 263 268 275 284 294 302 305 304 299 294 292 292 292 292 290 284 277 269 265 266 265 257 243 228 216 208 203 200 201 203
234 233 221 216 221 227 228 233 241 243 246 253 265 274 281 289 297 302 302 301 298 295 293 290 287 288 288 281 272 266 260 255 243 224 205 190 181 177 180 181 179 181
263 247 238 233 237 242 242 244 245 244 250 262 273 278 280 285 293 301 305 304 301 299 297 292 285 282 278 268 261 260 257 239 220 204 186 172 166 163 166 171 173 178
289 283 277 267 260 258 255 258 264 268 272 275 276 274 273 277 287 299 305 305 301 298 295 288 279 271 263 251 247 250 245 225 208 197 181 169 166 169 171 174 178 183